Regional Weather Roundup
Issued by NWS

Home | Current Version | Previous Version | Text Only | Print | Product List | Glossary On
Versions: 1 2 3 4 5 6 7 8 9 10 11 12 13 14 15 16 17 18 19 20 21 22 23 24 25 26 27 28 29 30 31 32 33 34 35 36 37 38 39 40 41 42 43 44 45 46 47 48 49 50
000
ASUS43 KDTX 191801
RWRMI
MICHIGAN HOURLY REGIONAL WEATHER ROUNDUP
NATIONAL WEATHER SERVICE DETROIT/PONTIAC MI
100 PM EST SUN NOV 19 2017

NOTE: "FAIR" INDICATES FEW OR NO CLOUDS BELOW 12,000 FEET WITH NO
SIGNIFICANT WEATHER AND/OR OBSTRUCTION TO VISIBILITY.

MIZ047>049-052>055-059>063-066>070-074>076-081>083-191900-
SOUTHEAST LOWER MICHIGAN

CITY           SKY/WX    TMP DP  RH WIND       PRES   REMARKS
ADRIAN         FLURRIES  35  26  69 NW13G21   29.89S WCI  26
6HR MIN TEMP:  34; 6HR MAX TEMP:  36; 6HR PCP: TRACE;

ALMA           CLOUDY    32  26  78 W14       29.88S WCI  22
ANN ARBOR      CLOUDY    35  24  64 W13G24    29.86R WCI  26
BAD AXE        CLOUDY    32  24  73 W14G23    29.80R WCI  22
6HR MIN TEMP:  32; 6HR MAX TEMP:  35;

CARO           CLOUDY    32  26  76 W13G21    29.82S WCI  23
DETROIT CITY   CLOUDY    45  26  47 NW18      29.85R
6HR MIN TEMP:  45; 6HR MAX TEMP:  50;

DETROIT        CLOUDY    37  25  61 W16G23    29.84F WCI  28
6HR MIN TEMP:  35; 6HR MAX TEMP:  37; 6HR PCP: TRACE;

FLINT          CLOUDY    33  22  63 W15       29.85S WCI  23
6HR MIN TEMP:  32; 6HR MAX TEMP:  34; 6HR PCP: TRACE;

GROSSE ILE     CLOUDY    37  28  69 NW14      29.84F WCI  28
6HR MIN TEMP:  34; 6HR MAX TEMP:  37;

HILLSDALE      CLOUDY    32  25  74 W15G24    29.88S WCI  22
HOWELL         CLOUDY    32  28  83 W15       29.85S WCI  22
6HR MIN TEMP:  32; 6HR MAX TEMP:  33;


CITY           SKY/WX    TMP DP  RH WIND       PRES   REMARKS
JACKSON        CLOUDY    34  24  67 W14G21    29.87F WCI  25
6HR MIN TEMP:  33; 6HR MAX TEMP:  35; 6HR PCP: TRACE;

LAMBERTVILLE   CLOUDY    39  28  64 W12       29.88S WCI  32
6HR MIN TEMP:  38; 6HR MAX TEMP:  39;

LANSING        CLOUDY    33  26  75 W15       29.89R WCI  23
6HR MIN TEMP:  32; 6HR MAX TEMP:  34; 6HR PCP:  0.02;

LAPEER         CLOUDY    32  28  83 NW12G17   29.83R WCI  23
6HR MIN TEMP:  32; 6HR MAX TEMP:  34;

MASON          CLOUDY    34  26  71 W18G24    29.88R WCI  23
MONROE         CLOUDY    38  25  59 W16G22    29.86R WCI  29
MT. CLEMENS    FLURRIES  36  30  79 W16       29.81R WCI  26
6HR MIN TEMP:  36; 6HR MAX TEMP:  37; 6HR PCP: TRACE;

PONTIAC        FLURRIES  32  28  85 W18       29.82S WCI  20
6HR MIN TEMP:  32; 6HR MAX TEMP:  34; 6HR PCP: TRACE;

PORT HOPE        N/A     33  25  72 NW14G24   29.76S WCI  23
6HR MIN TEMP:  33; 6HR MAX TEMP:  36;

PORT HURON     CLOUDY    34  27  75 NW9       29.81R WCI  26
TRI CITIES     CLOUDY    35  22  58 W18       29.85S WCI  24
6HR MIN TEMP:  32; 6HR MAX TEMP:  35; 6HR PCP: TRACE;

MIDLAND        CLOUDY    35  21  57 W8G20     29.84S WCI  28
6HR MIN TEMP:  31; 6HR MAX TEMP:  35;

TROY           FLURRIES  36  29  76 W13G21    29.86R WCI  27
SAGINAW HB     CLOUDY    34  23  64 W10       29.83F WCI  26
$$
MIZ043>046-050>051-056>058-064>065-071>073-077>080-191900-
SOUTHWEST LOWER MICHIGAN

CITY           SKY/WX    TMP DP  RH WIND       PRES   REMARKS
BATTLE CREEK   CLOUDY    32  25  75 W14       29.92S WCI  22
6HR MIN TEMP:  32; 6HR MAX TEMP:  35; 6HR PCP: TRACE;

BENTON HARBOR  CLOUDY    33  20  58 W14G24    30.00R WCI  23
6HR MIN TEMP:  33; 6HR MAX TEMP:  37;

BIG RAPIDS     FLURRIES  30  21  69 W15       29.87S WCI  19
6HR MIN TEMP:  29; 6HR MAX TEMP:  31;

COLDWATER      CLOUDY    33  23  66 W15G22    29.92S WCI  23
6HR MIN TEMP:  33; 6HR MAX TEMP:  35;

FREMONT        CLOUDY    30  20  65 W15G22    29.92S WCI  19
HOLLAND        CLOUDY    33  23  66 W14G21    29.96R WCI  23
6HR MIN TEMP:  32; 6HR MAX TEMP:  35; 6HR PCP: TRACE;

GRAND RAPIDS   FLURRIES  32  24  72 W20       29.92R WCI  20
6HR MIN TEMP:  31; 6HR MAX TEMP:  35; 6HR PCP: TRACE;

IONIA          CLOUDY    33  24  69 W18       29.89S WCI  21
6HR MIN TEMP:  32; 6HR MAX TEMP:  34;

KALAMAZOO      CLOUDY    32  21  64 NW16      29.94R WCI  21
6HR MIN TEMP:  32; 6HR MAX TEMP:  36; 6HR PCP: TRACE;

LUDINGTON      CLOUDY    29  19  66 NW9G16    29.93S WCI  20
6HR MIN TEMP:  29; 6HR MAX TEMP:  32;

MARSHALL       FLURRIES  32  26  78 W16       29.91R WCI  21
6HR MIN TEMP:  31; 6HR MAX TEMP:  34;

MOUNT PLEASANT FLURRIES  32  25  76 W12       29.86S WCI  23
6HR MIN TEMP:  32; 6HR MAX TEMP:  34;

MUSKEGON       FLURRIES  32  18  56 NW16G22   29.95S WCI  21
6HR MIN TEMP:  31; 6HR MAX TEMP:  35; 6HR PCP: TRACE;

SOUTH HAVEN    CLOUDY    33  21  61 NW10G20   29.97S WCI  25
$$
MIZ016>042-191900-
NORTHERN LOWER MICHIGAN

CITY           SKY/WX    TMP DP  RH WIND       PRES   REMARKS
ALPENA         CLOUDY    31  18  58 NW14G22   29.78S WCI  21
6HR MIN TEMP:  30; 6HR MAX TEMP:  33; 6HR PCP:  0.01;

BEAVER ISLAND  CLOUDY    29  19  66 NW10G20   29.85R WCI  20
6HR MIN TEMP:  28; 6HR MAX TEMP:  31;

BELLAIRE       CLOUDY    30  20  66 NW8G17    29.86R WCI  22
6HR MIN TEMP:  30; 6HR MAX TEMP:  31;

CADILLAC       CLOUDY    28  20  71 W16G22    29.83S WCI  16
CHARLEVOIX     FLURRIES  30  20  67 W15G24    29.87R WCI  19
FRANKFORT      CLOUDY    29  19  65 W15G22    29.91R WCI  18
GAYLORD        SNOW      24  20  84 W8G17     29.79S VSB 1/2 WCI  15
6HR MIN TEMP:  24; 6HR MAX TEMP:  27; 6HR PCP:  0.05;

GRAYLING       CLOUDY    28  21  75 W10G16    29.82R WCI  18
6HR MIN TEMP:  28; 6HR MAX TEMP:  30;

HARBOR SPRINGS CLOUDY    29  17  58 W8G20     29.82R WCI  22
MANISTEE       FLURRIES  28  19  69 W15       29.92R WCI  16
OSCODA         SNOW      29  25  84 W9G16     29.79S VSB 1/4 WCI  21
6HR MIN TEMP:  29; 6HR MAX TEMP:  32;

PELLSTON       CLOUDY    29  16  58 W14       29.81S WCI  18
6HR MIN TEMP:  26; 6HR MAX TEMP:  29; 6HR PCP:  0.12;

ROGERS CITY    CLOUDY    30  21  70 NW12      29.80R WCI  20
TRAVERSE CITY  LGT SNOW  29  22  75 NW15      29.87R WCI  18
6HR MIN TEMP:  29; 6HR MAX TEMP:  32; 6HR PCP: TRACE;

$$
MIZ007>008-015-191900-
EASTERN UPPER MICHIGAN

CITY           SKY/WX    TMP DP  RH WIND       PRES   REMARKS
KINROSS        LGT SNOW  24  18  77 CALM      29.79S
6HR MIN TEMP:  22; 6HR MAX TEMP:  26;

MACKINAC ISLAN CLOUDY    31  20  65 W15G24    29.79F WCI  20
6HR MIN TEMP:  28; 6HR MAX TEMP:  31;

NEWBERRY       CLOUDY    25  21  83 W12G17    29.80S WCI  14
6HR MIN TEMP:  24; 6HR MAX TEMP:  27;

S. S. MARIE    FLURRIES  24  14  65 NW5       29.77F WCI  18
6HR MIN TEMP:  23; 6HR MAX TEMP:  25; 6HR PCP: TRACE;

MUNISING         N/A     27  22  81 VRB3      29.85F
6HR MIN TEMP:  25; 6HR MAX TEMP:  29; 6HR PCP:  0.15;

$$
MIZ004>006-011>014-085-191900-
CENTRAL UPPER MICHIGAN

CITY           SKY/WX    TMP DP  RH WIND       PRES   REMARKS
MANISTIQUE     FLURRIES  27  13  57 W10       29.85F WCI  17
6HR MIN TEMP:  24; 6HR MAX TEMP:  27;

ESCANABA       FLURRIES  26  15  63 W9        29.90F WCI  17
6HR MIN TEMP:  24; 6HR MAX TEMP:  26; 6HR PCP: TRACE;

MENOMINEE      MOSUNNY   26  12  55 NW12G20   29.95F WCI  16
6HR MIN TEMP:  24; 6HR MAX TEMP:  27; 6HR PCP: TRACE;

SAWYER-GWINN   FLURRIES  23  14  68 W14       29.85F WCI  11
$$
MIZ001>003-009>011-084-191900-
WESTERN UPPER MICHIGAN

CITY           SKY/WX    TMP DP  RH WIND       PRES   REMARKS
IRON MOUNTAIN  CLOUDY    22  10  60 W15G23    29.89F WCI   9
6HR MIN TEMP:  21; 6HR MAX TEMP:  23; 6HR PCP: TRACE;

HOUGHTON       CLOUDY    23  14  68 W17       29.83F WCI   9
6HR MIN TEMP:  21; 6HR MAX TEMP:  23; 6HR PCP: TRACE;

COPPER HARBOR    N/A     26  16  65 N18G24    29.84F WCI  13
6HR MIN TEMP:  23; 6HR MAX TEMP:  26;

IRONWOOD       PTSUNNY  N/A N/A N/A W9        29.92F
                                      6HR PCP: TRACE;

$$

ABBREVIATIONS USED IN REMARKS
   TC - TEMPERATURE IN CELSIUS
  WCI - WIND CHILL INDEX
   HX - HEAT INDEX
  VSB - VISIBILITY





USA.gov is the U.S. government's official web portal to all federal, state and local government web resources and services.